EW8958 Weather Reports


Display with metric or nautical units.
time (UTC)temp
F
wind
direction
speed
MPH
gust
MPH
rain 1hr
in
rain 24hr
in
rain mn
in
humidity
%
barometer
mb
20260507185016 67 90 3.0 5.0 0.00 0.17 0.03 29 1005.8
20260507184019 67 299 3.0 4.0 0.00 0.17 0.03 28 1005.8
20260507183032 67 264 4.0 6.0 0.00 0.17 0.03 28 1005.8
20260507182028 66 313 3.0 6.0 0.00 0.17 0.03 29 1006.0
20260507181051 67 305 4.0 9.0 0.00 0.17 0.03 29 1006.0
20260507180032 67 306 3.0 6.0 0.00 0.17 0.03 30 1006.2
20260507175028 67 295 3.0 8.0 0.00 0.17 0.03 30 1006.1
20260507174028 66 307 3.0 6.0 0.00 0.17 0.03 30 1006.1
20260507173049 66 293 4.0 6.0 0.00 0.17 0.03 31 1006.1
20260507172025 66 336 3.0 7.0 0.00 0.17 0.03 31 1006.2
20260507171026 66 269 4.0 7.0 0.00 0.17 0.03 35 1006.4
20260507170022 65 275 3.0 7.0 0.00 0.17 0.03 35 1006.5
20260507165019 65 260 4.0 8.0 0.00 0.17 0.03 37 1006.6
20260507164031 64 279 4.0 6.0 0.00 0.17 0.03 38 1006.7
20260507163042 64 298 3.0 5.0 0.00 0.17 0.03 39 1006.8
20260507162023 64 318 3.0 4.0 0.00 0.17 0.03 42 1006.9
20260507161033 62 287 3.0 5.0 0.00 0.17 0.03 48 1007.0
20260507160054 62 298 3.0 5.0 0.00 0.17 0.03 46 1006.9
20260507155030 62 287 2.0 6.0 0.00 0.17 0.03 49 1006.9
20260507154031 61 314 3.0 5.0 0.00 0.17 0.03 51 1007.0
20260507153054 63 233 3.0 5.0 0.00 0.17 0.03 49 1007.0
20260507152034 61 312 3.0 6.0 0.00 0.17 0.03 52 1007.1
20260507151017 61 285 1.0 3.0 0.00 0.17 0.03 56 1007.1
20260507150018 61 251 2.0 4.0 0.00 0.17 0.03 57 1007.5
20260507145025 59 206 2.0 4.0 0.00 0.17 0.03 56 1007.6
20260507144043 61 149 3.0 5.0 0.00 0.17 0.03 54 1007.5
20260507143017 61 325 2.0 3.0 0.00 0.17 0.03 54 1007.6
20260507142025 61 147 2.0 5.0 0.00 0.17 0.03 56 1007.7
20260507141025 59 324 1.0 3.0 0.00 0.17 0.03 55 1007.7
20260507140049 61 257 3.0 6.0 0.00 0.17 0.03 53 1007.6
20260507135023 60 276 2.0 4.0 0.00 0.17 0.03 55 1007.5
20260507134020 60 191 2.0 4.0 0.00 0.17 0.03 56 1007.5
20260507133021 60 344 2.0 4.0 0.00 0.17 0.03 56 1007.6
20260507132044 59 203 3.0 4.0 0.00 0.17 0.03 57 1007.8
20260507131147 59 298 1.0 3.0 0.00 0.17 0.03 59 1008.0
20260507130024 58 282 2.0 4.0 0.00 0.17 0.03 62 1008.1
20260507125021 57 318 2.0 3.0 0.00 0.17 0.03 63 1008.0
20260507124049 57 258 2.0 4.0 0.00 0.17 0.03 65 1008.0
20260507123023 55 168 2.0 3.0 0.00 0.17 0.03 69 1008.1
20260507122020 54 239 1.0 5.0 0.00 0.17 0.03 73 1008.2
20260507121026 52 296 1.0 3.0 0.00 0.17 0.03 74 1008.1
20260507120027 53 340 2.0 4.0 0.00 0.17 0.03 72 1008.0
20260507115021 53 303 1.0 3.0 0.00 0.17 0.03 74 1008.0
20260507114017 51 265 1.0 4.0 0.00 0.17 0.03 79 1008.1
20260507113033 51 277 2.0 5.0 0.00 0.17 0.03 80 1008.1
20260507112028 50 325 0.0 2.0 0.00 0.17 0.03 83 1007.9
20260507111046 49 0.0 0.0 0.00 0.17 0.03 85 1007.8
20260507110020 49 113 0.0 2.0 0.00 0.17 0.03 85 1008.0
20260507105022 48 0.0 0.0 0.00 0.17 0.03 85 1007.7
20260507104018 48 0.0 2.0 0.00 0.17 0.03 86 1007.2
20260507103018 48 273 1.0 3.0 0.00 0.17 0.03 87 1007.1
20260507102026 48 285 1.0 3.0 0.00 0.17 0.03 88 1007.0
20260507101022 48 243 1.0 3.0 0.00 0.17 0.03 88 1007.2
20260507100017 48 296 2.0 5.0 0.01 0.17 0.03 88 1006.8
20260507095020 48 244 1.0 3.0 0.01 0.17 0.03 88 1007.3
20260507094015 49 279 0.0 3.0 0.01 0.17 0.03 87 1007.3
20260507093018 49 262 1.0 3.0 0.01 0.17 0.03 87 1007.3
20260507092032 49 0.0 0.0 0.01 0.17 0.03 87 1007.2
20260507091016 49 285 1.0 3.0 0.01 0.17 0.03 87 1007.6
20260507090029 49 274 1.0 2.0 0.00 0.16 0.02 87 1007.3
20260507085020 50 90 1.0 3.0 0.00 0.16 0.02 87 1007.1
20260507084022 50 232 2.0 4.0 0.01 0.16 0.02 87 1007.1
20260507083018 50 272 1.0 5.0 0.01 0.16 0.02 88 1007.1
20260507082031 50 214 0.0 2.0 0.01 0.16 0.02 88 1006.8
20260507081016 51 315 0.0 2.0 0.01 0.16 0.02 88 1006.8
20260507080016 51 230 1.0 4.0 0.01 0.16 0.02 88 1007.3
20260507075024 52 223 1.0 4.0 0.01 0.16 0.02 88 1007.0
20260507074040 52 315 0.0 2.0 0.00 0.15 0.01 88 1006.7
20260507073015 52 255 2.0 4.0 0.00 0.15 0.01 87 1006.5
20260507072038 52 0.0 0.0 0.00 0.15 0.01 86 1006.2
20260507071033 52 0.0 1.0 0.00 0.15 0.01 86 1006.3
20260507070033 52 248 0.0 3.0 0.00 0.15 0.01 86 1006.0
20260507065015 52 0.0 0.0 0.00 0.15 0.01 86 1006.3
20260507064030 52 270 0.0 1.0 0.00 0.15 0.01 85 1006.3
20260507063022 52 0.0 0.0 0.00 0.15 0.01 84 1006.4
20260507062022 52 290 1.0 4.0 0.00 0.15 0.01 84 1006.3
20260507061024 53 0.0 0.0 0.00 0.15 0.01 84 1006.3
20260507060026 53 352 1.0 2.0 0.00 0.15 0.01 84 1006.3
20260507055026 53 328 2.0 4.0 0.00 0.15 0.01 84 1006.6
20260507054048 53 339 3.0 5.0 0.00 0.15 0.01 86 1006.4
20260507053023 54 332 2.0 3.0 0.00 0.15 0.01 89 1006.4
20260507052019 55 298 1.0 2.0 0.00 0.15 0.01 91 1006.6
20260507051021 55 269 1.0 3.0 0.00 0.15 0.01 90 1006.4
20260507050017 55 302 2.0 6.0 0.00 0.15 0.01 90 1006.7
20260507045031 55 277 1.0 3.0 0.01 0.15 0.01 90 1006.6
20260507044113 55 270 1.0 3.0 0.01 0.15 0.01 90 1006.4
20260507043036 55 266 1.0 3.0 0.01 0.15 0.01 89 1006.4
20260507042050 56 307 1.0 3.0 0.01 0.15 0.01 89 1006.3
20260507041025 56 258 2.0 5.0 0.01 0.15 0.01 88 1006.6
20260507040048 57 353 3.0 9.0 0.01 0.15 0.01 89 1006.2
20260507035022 58 279 3.0 8.0 0.00 0.14 0.14 93 1005.7
20260507034023 59 240 2.0 4.0 0.00 0.14 0.14 95 1005.9
20260507033024 59 134 2.0 3.0 0.00 0.14 0.14 95 1005.8
20260507032026 59 202 0.0 2.0 0.00 0.14 0.14 95 1005.6
20260507031022 59 201 1.0 4.0 0.00 0.14 0.14 95 1005.2
20260507030019 59 201 2.0 4.0 0.00 0.14 0.14 95 1005.3
20260507025032 59 200 2.0 4.0 0.00 0.14 0.14 95 1005.3
20260507024028 59 318 1.0 2.0 0.00 0.14 0.14 95 1005.4
20260507023024 59 225 1.0 4.0 0.00 0.14 0.14 95 1005.3
20260507022021 59 190 3.0 5.0 0.00 0.14 0.14 95 1005.1
20260507021028 59 174 2.0 4.0 0.00 0.14 0.14 95 1005.0
20260507020029 59 168 2.0 7.0 0.00 0.14 0.14 95 1005.1
20260507015047 59 220 2.0 4.0 0.00 0.14 0.14 95 1005.3
20260507014017 59 194 2.0 4.0 0.00 0.14 0.14 95 1005.3
20260507013019 59 115 2.0 4.0 0.00 0.14 0.14 95 1005.3
20260507012031 59 160 3.0 6.0 0.00 0.14 0.14 95 1005.4
20260507011036 59 175 3.0 5.0 0.00 0.14 0.14 95 1005.4
20260507010038 59 129 4.0 7.0 0.00 0.14 0.14 95 1005.3
20260507005024 59 177 5.0 10.0 0.00 0.14 0.14 95 1005.4
20260507004021 59 189 4.0 7.0 0.00 0.14 0.14 95 1005.2
20260507003021 59 192 4.0 7.0 0.00 0.14 0.14 95 1005.2
20260507002023 59 164 3.0 8.0 0.01 0.14 0.14 95 1005.2
20260507001019 59 169 3.0 5.0 0.01 0.14 0.14 95 1005.1
20260507000022 59 204 4.0 6.0 0.04 0.14 0.14 94 1005.0
20260506235049 59 177 2.0 4.0 0.05 0.14 0.14 94 1005.1
20260506234026 59 126 2.0 4.0 0.05 0.14 0.14 94 1005.0
20260506233027 60 160 3.0 7.0 0.05 0.14 0.14 94 1004.9
20260506232018 60 144 3.0 6.0 0.04 0.13 0.13 93 1004.8
20260506231020 60 165 3.0 6.0 0.05 0.13 0.13 93 1005.0
20260506230043 60 139 4.0 8.0 0.02 0.10 0.10 92 1005.2
20260506225017 60 242 3.0 6.0 0.01 0.09 0.09 92 1005.2
20260506224019 60 129 5.0 9.0 0.01 0.09 0.09 92 1005.3
20260506223026 60 138 4.0 6.0 0.01 0.09 0.09 92 1005.3
20260506222021 60 150 3.0 6.0 0.01 0.09 0.09 91 1005.4
20260506221017 60 179 4.0 6.0 0.00 0.08 0.08 91 1005.4
20260506220019 60 182 4.0 6.0 0.01 0.08 0.08 91 1005.5
20260506215033 60 186 4.0 7.0 0.01 0.08 0.08 91 1005.8
20260506214028 60 162 4.0 6.0 0.01 0.08 0.08 90 1005.7
20260506213024 60 270 3.0 3.0 0.02 0.08 0.08 90 1005.8
20260506212025 61 179 5.0 8.0 0.03 0.08 0.08 90 1006.2
20260506211046 61 219 4.0 6.0 0.03 0.08 0.08 89 1006.1
20260506210029 61 49 3.0 3.0 0.03 0.07 0.07 89 1006.2
20260506205024 61 158 6.0 9.0 0.03 0.07 0.07 89 1006.3
20260506204020 61 122 4.0 5.0 0.03 0.07 0.07 89 1006.3
20260506203015 61 217 7.0 11.0 0.03 0.06 0.06 88 1006.3
20260506202016 62 112 5.0 8.0 0.03 0.05 0.05 86 1006.2
20260506201024 62 131 4.0 7.0 0.03 0.05 0.05 85 1006.1
20260506200021 63 252 4.0 6.0 0.03 0.04 0.04 85 1006.3
20260506195016 63 188 3.0 6.0 0.04 0.04 0.04 85 1006.2
20260506194059 63 142 3.0 5.0 0.04 0.04 0.04 83 1006.2
20260506193033 64 173 3.0 4.0 0.03 0.03 0.03 83 1006.1
20260506192052 64 190 3.0 6.0 0.02 0.02 0.02 82 1006.0
20260506191023 65 198 2.0 3.0 0.02 0.02 0.02 80 1006.2
20260506190019 66 199 3.0 4.0 0.01 0.01 0.01 76 1006.2